[[{"header":{"parameterUnit":"m.s-1","parameterCategory":1,"la1":30.2991,"la2":30.254,"lo1":-89.0895,"lo2":-89.0444,"dy":0.0017,"dx":0.0017,"nx":28,"ny":28,"refTime":"2025-07-10T03:00:00:Z","depth":0,"parameterNumber":2,"parameterNumberName":"U-component_of_WINDS"},"data":[0,0,0,0,0,0,0,0,0,0,0,0,0,0,0,0,0,0,0,0,0,0,0,0,0,0,0,0,0,0,0,0,0,0,0,0,0,0,0,0,0,0,0,0,0,0,0,0,0,0,0,0,0,0,0,0,0,0,0.9167,0.9168,0,0.926,0.9261,0.9262,0.9291,0.9291,0.929,0.929,0.9389,0.9392,0.9395,0,0,0,0,0,0,0,0,0,0,0,0,0,0.9016,0.9019,0.9167,0.9168,0.9169,0.926,0.9261,0.9262,0.9291,0.9291,0.929,0.9289,0.9388,0.9391,0.9395,0,0,0,0,0,0,0,0,0,0,0,0,0,0.9092,0.9019,0.9167,0.9194,0.9198,0.9259,0.9261,0.9263,0.9291,0.9291,0.929,0.9289,0.9386,0.9391,0.9395,0.9437,0,0,0.9409,0.9411,0,0,0,0,0,0,0,0,0.9088,0.9098,0.9189,0.9192,0.9196,0.9263,0.9244,0.9321,0.9291,0.9256,0.929,0.9289,0.9348,0.9355,0.9374,0.9442,0.9446,0.941,0.9413,0.9415,0.9416,0,0,0,0,0,0,0,0.9083,0.9094,0.9204,0.919,0.9195,0.9203,0.9213,0.9259,0.9305,0.9259,0.9261,0.9272,0.935,0.937,0.9377,0.9448,0.941,0.9414,0.9417,0.9418,0.9552,0.9553,0,0,0,0,0,0,0.9072,0.909,0.9201,0.9206,0.9139,0.9206,0.9217,0.9242,0.9304,0.9313,0.9272,0.9273,0.9362,0.9372,0.9381,0.9432,0.9415,0.9419,0.9421,0.9552,0.9553,0.9553,0,0,0,0,0,0,0.9069,0.9082,0.9197,0.9149,0.9164,0.9209,0.9237,0.9245,0.9265,0.9314,0.9323,0.9284,0.9362,0.9374,0.9422,0.9436,0.9421,0.9425,0.9551,0.9552,0.9553,0.9537,0,0,0,0,0,0,0.9065,0.9081,0.9097,0.9149,0.9166,0.9236,0.9238,0.9247,0.9272,0.9274,0.9328,0.9336,0.9363,0.9415,0.9427,0.9442,0.9429,0.955,0.9551,0.9553,0.9537,0.9538,0.9538,0,0,0,0,0,0.9059,0.909,0.9097,0.9111,0.9187,0.9237,0.9247,0.9276,0.9273,0.929,0.9321,0.9334,0.9433,0.942,0.9433,0.945,0.9549,0.9551,0.9553,0.9536,0.9537,0.9538,0,0,0,0,0,0,0.904,0.9097,0.9106,0.9154,0.919,0.9242,0.9264,0.9277,0.9316,0.9316,0.9351,0.9363,0.9408,0.9434,0.9419,0.9493,0.9491,0.9496,0.9474,0.9476,0.9477,0.947,0.9432,0,0,0,0,0,0.9041,0.9076,0.9124,0.9162,0.918,0.9218,0.9242,0.926,0.93,0.9315,0.935,0.9389,0.9428,0.9454,0.9493,0.954,0.9552,0.9559,0.9559,0.956,0.9564,0.9589,0.9592,0.9559,0.9559,0.9559,0,0,0.9044,0.908,0.91,0.9159,0.9189,0.9225,0.9231,0.927,0.9296,0.9322,0.9369,0.9395,0.9441,0.9488,0.9511,0.9511,0.9575,0.9562,0.9562,0.9566,0.9591,0.9595,0.9597,0.9561,0.956,0.956,0,0,0.9068,0.9098,0.9132,0.9162,0.9207,0.9232,0.924,0.9289,0.9307,0.9355,0.9374,0.9407,0.9475,0.9505,0.953,0.9563,0.9576,0.9575,0.958,0.9605,0.9607,0.961,0.9621,0.9624,0.9578,0.9578,0.9578,0,0.9066,0.912,0.9149,0.9185,0.921,0.9233,0.9267,0.9295,0.9351,0.9368,0.9367,0.9451,0.9484,0.9538,0.9545,0.9565,0.9575,0.9569,0.9604,0.9607,0.961,0.9621,0.9625,0.9578,0.9578,0.9578,0.9578,0,0.9116,0.9153,0.9175,0.9226,0.9254,0.9289,0.9323,0.9348,0.9364,0.9389,0.9436,0.9476,0.9522,0.9537,0.9554,0.9593,0.9592,0.9597,0.9596,0.9612,0.9623,0.9627,0.9577,0.9577,0.9577,0.9577,0,0,0.9131,0.9196,0.9203,0.9226,0.9276,0.9306,0.9342,0.9386,0.9406,0.9444,0.9475,0.953,0.9535,0.9563,0.9583,0.9605,0.9627,0.9608,0.9609,0.9609,0.9672,0.9666,0.9671,0.9636,0.9637,0.9637,0.9667,0,0.916,0.9225,0.925,0.9303,0.9337,0.9358,0.9389,0.9423,0.9448,0.948,0.9508,0.9546,0.955,0.9567,0.9589,0.9619,0.964,0.9618,0.9665,0.9667,0.9653,0.9677,0.9672,0.9699,0.9672,0.9673,0.9673,0,0.9204,0.9239,0.9294,0.9339,0.9354,0.9381,0.9423,0.9454,0.9493,0.9509,0.9539,0.9558,0.9596,0.9592,0.9646,0.963,0.9651,0.9669,0.9671,0.9676,0.9671,0.9682,0.9708,0.9711,0.968,0.968,0.9679,0,0.9208,0.927,0.931,0.9329,0.9382,0.9401,0.9424,0.9463,0.9487,0.9523,0.9539,0.9581,0.9603,0.9635,0.9664,0.9658,0.9714,0.9713,0.9729,0.9728,0.974,0.9739,0.9769,0.9754,0.9754,0.9754,0.9754,0,0.9238,0.9271,0.9313,0.9337,0.9374,0.9404,0.944,0.9465,0.9498,0.9528,0.955,0.9578,0.9615,0.9648,0.9671,0.9711,0.9722,0.9736,0.9742,0.9734,0.9732,0.9748,0.9747,0.9755,0.9755,0.9755,0.9754,0,0.9249,0.9279,0.9324,0.9369,0.9382,0.9407,0.9446,0.9471,0.9496,0.9534,0.9544,0.9583,0.9623,0.9655,0.9707,0.9723,0.9765,0.9772,0.9751,0.9754,0.9768,0.9765,0.9809,0.9815,0.9796,0.9797,0.9797,0,0.9266,0.9291,0.9339,0.936,0.9382,0.9416,0.944,0.947,0.9494,0.954,0.9559,0.96,0.9634,0.9696,0.973,0.977,0.9777,0.9789,0.9784,0.9774,0.9777,0.9774,0.9777,0.979,0.979,0.979,0.979,0,0.9293,0.9305,0.9339,0.9377,0.9404,0.9436,0.9469,0.9485,0.9521,0.9547,0.9586,0.9613,0.9665,0.9705,0.9748,0.9773,0.9787,0.9792,0.9797,0.9789,0.9776,0.9782,0.9752,0.9791,0.9791,0.9791,0.9791,0.9791,0.9307,0.933,0.9366,0.9402,0.9429,0.9458,0.9483,0.951,0.9543,0.9587,0.9603,0.9643,0.9681,0.974,0.9764,0.9797,0.9798,0.9807,0.9809,0.981,0.9809,0.977,0.9805,0.9805,0.9805,0.9805,0.9805,0,0.9334,0.9358,0.939,0.9434,0.9462,0.9472,0.9508,0.9531,0.9566,0.9599,0.9631,0.9676,0.9715,0.975,0.9791,0.981,0.9817,0.9819,0.9818,0.9823,0.9806,0.9796,0.9812,0.9812,0.9812,0.9812,0.9812,0.9812,0.9351,0.9389,0.9406,0.9458,0.9482,0.9521,0.954,0.9567,0.9594,0.9642,0.9674,0.9696,0.973,0.9773,0.9808,0.9818,0.9832,0.9832,0.9843,0.9826,0.9825,0.9824,0.9815,0.9834,0.9834,0.9858,0.9858,0.9858]},{"header":{"parameterUnit":"m.s-1","parameterCategory":1,"la1":30.2991,"la2":30.254,"lo1":-89.0895,"lo2":-89.0444,"dy":0.0017,"dx":0.0017,"nx":28,"ny":28,"refTime":"2025-07-10T03:00:00:Z","depth":0,"parameterNumber":3,"parameterNumberName":"V-component_of_WINDS"},"data":[0,0,0,0,0,0,0,0,0,0,0,0,0,0,0,0,0,0,0,0,0,0,0,0,0,0,0,0,0,0,0,0,0,0,0,0,0,0,0,0,0,0,0,0,0,0,0,0,0,0,0,0,0,0,0,0,0,0,4.2771,4.277,0,4.271,4.2709,4.2708,4.2648,4.2647,4.2646,4.2646,4.2579,4.2578,4.2577,0,0,0,0,0,0,0,0,0,0,0,0,0,4.2833,4.2832,4.2771,4.277,4.277,4.271,4.2709,4.2708,4.2648,4.2647,4.2646,4.2645,4.2579,4.2578,4.2577,0,0,0,0,0,0,0,0,0,0,0,0,0,4.2792,4.2832,4.2771,4.2732,4.2728,4.271,4.2709,4.2708,4.2648,4.2647,4.2646,4.2645,4.258,4.2578,4.2577,4.259,0,0,4.2572,4.2571,0,0,0,0,0,0,0,0,4.2795,4.279,4.2739,4.2735,4.2731,4.2685,4.2706,4.2668,4.2649,4.2679,4.2646,4.2644,4.2615,4.2611,4.2601,4.2587,4.2584,4.2572,4.2571,4.257,4.257,0,0,0,0,0,0,0,4.2798,4.2792,4.2747,4.2738,4.2733,4.2717,4.271,4.2699,4.2654,4.2676,4.2671,4.2665,4.2613,4.2603,4.2599,4.2584,4.2572,4.257,4.2569,4.2569,4.2576,4.2577,0,0,0,0,0,0,4.2807,4.2795,4.2749,4.2745,4.2761,4.2717,4.2709,4.2701,4.2654,4.2646,4.2666,4.2663,4.2606,4.2601,4.2597,4.2609,4.257,4.2569,4.2568,4.2575,4.2576,4.2578,0,0,0,0,0,0,4.2808,4.2803,4.2751,4.2769,4.2761,4.2717,4.2709,4.27,4.2691,4.2647,4.2638,4.2665,4.2605,4.2599,4.2592,4.2606,4.2568,4.2567,4.2574,4.2576,4.2577,4.2633,0,0,0,0,0,0,4.281,4.2804,4.281,4.2769,4.276,4.2749,4.2709,4.27,4.2689,4.2683,4.2643,4.2635,4.2604,4.2595,4.2591,4.2603,4.2565,4.2572,4.2575,4.2577,4.263,4.2637,4.2642,0,0,0,0,0,4.2813,4.2827,4.281,4.2805,4.2766,4.275,4.2744,4.2709,4.269,4.2695,4.2666,4.2637,4.2605,4.2595,4.259,4.2601,4.2571,4.2574,4.2576,4.2627,4.2635,4.2642,0,0,0,0,0,0,4.2869,4.2821,4.2802,4.2804,4.2782,4.274,4.2744,4.2719,4.27,4.2696,4.2651,4.2643,4.2641,4.262,4.261,4.2612,4.2584,4.2586,4.2625,4.2632,4.2638,4.2642,4.2564,0,0,0,0,0,4.2882,4.2874,4.2832,4.2838,4.2828,4.2788,4.278,4.2754,4.2729,4.2719,4.269,4.2665,4.2649,4.264,4.2623,4.2628,4.2617,4.2633,4.2639,4.2644,4.2646,4.2645,4.2651,4.2586,4.2586,4.2586,0,0,4.2908,4.2881,4.2878,4.2848,4.2828,4.2819,4.278,4.2773,4.2765,4.2717,4.2709,4.2687,4.2656,4.2655,4.2653,4.2638,4.2662,4.2648,4.2652,4.265,4.2648,4.2655,4.266,4.2588,4.2588,4.2587,0,0,4.295,4.293,4.2932,4.2913,4.2883,4.2856,4.2857,4.2819,4.2803,4.2795,4.2758,4.2748,4.2723,4.2702,4.2688,4.2724,4.2695,4.272,4.2751,4.2751,4.2757,4.2761,4.2772,4.2777,4.2722,4.2722,4.2722,0,4.2985,4.2972,4.2936,4.293,4.2918,4.2876,4.2876,4.2859,4.2825,4.2817,4.2801,4.2768,4.2744,4.2737,4.2746,4.2737,4.2735,4.2723,4.2759,4.2763,4.2766,4.2776,4.2781,4.2725,4.2724,4.2724,4.2724,0,4.3016,4.3007,4.3012,4.2982,4.297,4.2968,4.293,4.2923,4.2899,4.2874,4.2866,4.2836,4.2813,4.2809,4.2785,4.2799,4.279,4.2768,4.2739,4.2776,4.2785,4.2788,4.2729,4.2728,4.2727,4.2726,0,0,4.309,4.3041,4.3043,4.3028,4.2993,4.2984,4.298,4.2958,4.2952,4.293,4.2924,4.2904,4.2883,4.2867,4.2841,4.2842,4.287,4.2818,4.2817,4.2828,4.2881,4.2897,4.2902,4.2852,4.2852,4.2853,4.2883,0,4.3125,4.3116,4.3083,4.3083,4.3074,4.3034,4.303,4.3007,4.2984,4.2972,4.2946,4.2932,4.2906,4.2896,4.2895,4.2867,4.2879,4.2864,4.2844,4.2844,4.2851,4.2907,4.2923,4.2953,4.2886,4.2887,4.2887,0,4.3163,4.3145,4.3145,4.311,4.3104,4.3102,4.3079,4.3068,4.3041,4.3024,4.3008,4.2979,4.2971,4.2946,4.2933,4.2924,4.2914,4.2899,4.2899,4.2894,4.2866,4.2901,4.2962,4.2966,4.2892,4.2892,4.2891,0,4.3215,4.3191,4.3187,4.3176,4.3136,4.3134,4.3117,4.3089,4.3078,4.3058,4.305,4.3029,4.3017,4.3001,4.2966,4.2952,4.2957,4.2929,4.2941,4.2942,4.2942,4.2942,4.3,4.2939,4.2939,4.2939,4.2939,0,4.3256,4.3257,4.321,4.3208,4.3207,4.317,4.317,4.3149,4.3125,4.3116,4.3081,4.3074,4.303,4.3017,4.299,4.2983,4.2978,4.2963,4.2955,4.2965,4.2967,4.2956,4.2953,4.294,4.294,4.294,4.294,0,4.3313,4.3282,4.3275,4.3238,4.3228,4.3229,4.3197,4.3192,4.3168,4.3158,4.3153,4.3114,4.3098,4.3063,4.3036,4.3018,4.3016,4.3004,4.3026,4.3021,4.3034,4.3033,4.3085,4.309,4.3028,4.3029,4.3029,0,4.334,4.334,4.3303,4.3296,4.328,4.3269,4.3258,4.3222,4.3211,4.3181,4.318,4.3161,4.3143,4.3118,4.3086,4.3066,4.3052,4.3072,4.3048,4.3058,4.305,4.305,4.3049,4.3076,4.3077,4.3078,4.3078,0,4.3391,4.3376,4.3362,4.3343,4.3331,4.3313,4.3294,4.329,4.3249,4.3239,4.3222,4.3209,4.3182,4.3163,4.3138,4.3119,4.3091,4.3087,4.3088,4.3097,4.3109,4.3101,4.3038,4.3085,4.3084,4.3084,4.3083,4.3083,4.3432,4.343,4.3404,4.3389,4.3372,4.3355,4.3348,4.3324,4.331,4.3286,4.3266,4.3251,4.3224,4.3187,4.317,4.3156,4.3143,4.3145,4.3145,4.3146,4.315,4.3113,4.3152,4.3152,4.3151,4.3151,4.3151,0,4.348,4.3461,4.3449,4.3424,4.3412,4.339,4.3367,4.3359,4.3346,4.3324,4.3308,4.3289,4.327,4.3238,4.3216,4.3212,4.3199,4.3207,4.3206,4.3202,4.3164,4.3164,4.3218,4.3218,4.3218,4.3218,4.3218,4.3218,4.3503,4.3498,4.348,4.3465,4.3446,4.3433,4.3422,4.3405,4.3387,4.3368,4.3353,4.3333,4.3306,4.3282,4.3264,4.3255,4.3248,4.326,4.3247,4.3211,4.3205,4.3199,4.3198,4.3259,4.3259,4.3285,4.3286,4.3286]}]]